map of ORK home
ORK - Airport
Location
City:  Cork, County Cork, Munster, Ireland
Name:Cork International Airport
ICAO:EICK
IATA:ORK

Details
Type:Airport (Aerodrome, Airfield)
Use:International (customs port of entry)
Latitude:5150'29"N (51.841389)
Longitude:829'28"W (-8.491110)
Elevation:502 ft (153 m)
Variation:3.27W (WMM2015v2 magnetic declination)
0.20 annual change
Runways:2
Longest:6998 × 148 ft (2133 × 45 m), paved

Time
Time Zone:UTC+0 (DST+1)
Local Time:

Weather
METAR:EICK 041400Z 29005KT 9999 SCT022 10/04 Q1018 NOSIG
TAF:EICK 040500Z 0406/0506 28008KT 9999 SCT015
BECMG 0406/0408 31008KT
BECMG 0413/0415 VRB03KT
BECMG 0420/0423 15012KT
BECMG 0502/0504 3000 -RA BKN004
TEMPO 0504/0506 0500 -RADZ FG BKN001

Related Locations
Nearby:
Farthest:SZS: 12057 mi / 19404 km
Ryan's Creek, Stewart Island, STL, NZ

Find:

   beyond  
but within

Other Information
Maps:
NOTAMs:
Links:
Sources:

  
  • flag of Ireland
  • flag of Munster
  

Sectional Chart

Flight Planning
at skyvector.com

Satellite Image

Google Maps Satellite view

 

Copyright © 2004-2019 Karl L. Swartz. All rights reserved.
The Great Circle Mapper name and logo are trademarks of the Great Circle Mapper.
All other trademarks mentioned herein belong to their respective owners.
Please see credits for attibutions and further copyright information.

  Follow gcmap on Facebook Follow gcmap on Twitter GCmap on LinkedIn

hCard Microformat

Geo Microformat